Flag for Canada Weather past 2 weeks in Drummondville, Quebec, Canada

Now
37 °F

Chilly.


Feels Like: 26 °F
Forecast: N/A
Wind: 23 mph from Southwest

Location: Nicolet

Current Time: Dec 25, 2014 at 5:46:08 PM

Latest Report: Dec 25, 2014 at 5:00 PM


Visibility: N/A

Pressure: 29.52 "Hg

Humidity: 79%

Dew point: 31 °F

Location of DrummondvilleLocation

Historic Weather in Drummondville — Graph

°F

Drummondville temperature yesterday

Maximum temperature yesterday: 36 °F (at 2:00 PM)
Minimum temperature yesterday: 33 °F (at 12:00 AM)
Average temperature yesterday: 35 °F

Past Weeks' High & Low Weather Summary

 TemperatureHumidityPressure
High43 °F (Dec 25, 6:00 AM)100% (Dec 10, 4:00 PM)30.45 "Hg (Dec 10, 4:00 PM)
Low1 °F (Dec 20, 5:00 AM)63% (Dec 19, 12:00 PM)29.23 "Hg (Dec 25, 4:00 AM)
Average26 °F91%29.97 "Hg
* Reported Dec 10 4:00 PM — Dec 25 4:00 PM, Drummondville, Weather by CustomWeather, © 2014

Note: Actual official high and low records may vary slightly from our data, if they occured in-between our weather recording intervals... More about our weather records

Advertising

Drummondville weather history for previous 24 hours

 ConditionsComfort  
Time TempWeatherWind HumidityBarometerVisibility
4:00 PM
Dec 25
38 °FChilly.20 mph83%29.47 "HgN/A
3:00 PM40 °FChilly.17 mph72%29.42 "HgN/A
2:00 PM39 °FChilly.25 mph74%29.36 "HgN/A
1:00 PM41 °FQuite cool.23 mph70%29.32 "HgN/A
12:00 PM41 °FQuite cool.23 mph69%29.30 "HgN/A
11:00 AM41 °FQuite cool.26 mph68%29.28 "HgN/A
10:00 AM40 °FQuite cool.26 mph77%29.28 "HgN/A
9:00 AM41 °FQuite cool.23 mph73%29.27 "HgN/A
8:00 AM41 °FQuite cool.24 mph74%29.26 "HgN/A
7:00 AM42 °FQuite cool.28 mph75%29.26 "HgN/A
6:00 AM43 °FQuite cool.16 mph93%29.25 "HgN/A
5:00 AM40 °FQuite cool.8 mph93%29.25 "HgN/A
4:00 AM36 °FChilly.6 mph99%29.23 "HgN/A
3:00 AM36 °FChilly.9 mph98%29.26 "HgN/A
2:00 AM35 °FChilly.8 mph98%29.31 "HgN/A
1:00 AM36 °FChilly.8 mph98%29.35 "HgN/A
12:00 AM36 °FChilly.7 mph98%29.39 "HgN/A
11:00 PM
Dec 24
35 °FChilly.10 mph98%29.43 "HgN/A
10:00 PM36 °FChilly.7 mph98%29.45 "HgN/A
9:00 PM36 °FChilly.9 mph98%29.45 "HgN/A
8:00 PM35 °FChilly.6 mph98%29.55 "HgN/A
7:00 PM35 °FChilly.8 mph98%29.59 "HgN/A
6:00 PM35 °FChilly.9 mph98%29.63 "HgN/A
5:00 PM35 °FChilly.7 mph98%29.67 "HgN/A
Weather by CustomWeather, © 2014

See weather overviewHow to use our weather pages